Regional Weather Roundup
Issued by NWS

Home | Current Version | Previous Version | Text Only | Print | Product List | Glossary On
Versions: 1 2 3 4 5 6 7 8 9 10 11 12 13 14 15 16 17 18 19 20 21 22 23 24 25 26 27 28 29 30 31 32 33 34 35 36 37 38 39 40 41 42 43 44 45 46 47 48 49 50
000
ASUS43 KFSD 010610
RWRSD

WEATHER ROUNDUP FOR SOUTH DAKOTA
NATIONAL WEATHER SERVICE SIOUX FALLS SD
100 AM CDT WED JUL 01 2015

NOTE: "FAIR" INDICATES FEW OR NO CLOUDS BELOW 12,000 FEET WITH NO
SIGNIFICANT WEATHER AND/OR OBSTRUCTIONS TO VISIBILITY.


SDZ001>005-009-010-012>017-010700-
NORTHWEST AND NORTH CENTRAL SOUTH DAKOTA

CITY           SKY/WX    TMP DP  RH WIND       PRES   REMARKS
BUFFALO          N/A     65  60  84 W5        29.85S
MOBRIDGE       CLOUDY    68  65  90 SE12      29.84
$$

SDZ012>016-024>037-041>051-057-063-072>074-010700-
SOUTHWEST AND SOUTH CENTRAL SOUTH DAKOTA

CITY           SKY/WX    TMP DP  RH WIND       PRES   REMARKS
RAPID CTY ARPT PTCLDY    70  67  90 W7        29.92R
PIERRE         CLOUDY    66  64  93 SE5       29.87
CUSTER         MOCLDY    64  56  75 N9        30.13  THUNDER
ELLSWORTH AFB  PTCLDY    71  67  88 SW6       29.92R
PHILIP         PTCLDY    68  65  90 E7        29.88
PINE RIDGE     CLEAR     66  63  90 SW6       29.94
SPEARFISH      FAIR      68  63  83 NE5G17    29.99R
WINNER         FAIR      69  59  70 SE8       29.88
$$

SDZ004>011-016>023-039-040-010700-
NORTHEAST SOUTH DAKOTA

CITY           SKY/WX    TMP DP  RH WIND       PRES   REMARKS
ABERDEEN       CLOUDY    66  63  90 SE3       29.90
WATERTOWN      MOCLDY    65  60  84 SE6       29.90
BROOKINGS      MOCLDY    64  61  88 SE9       29.94R
SISSETON         N/A     61  59  93 CALM      29.91R
$$

SDZ017-020-022-023-036>040-048>070-010700-
SOUTHEAST SOUTH DAKOTA

CITY           SKY/WX    TMP DP  RH WIND       PRES   REMARKS
SIOUX FALLS    PTCLDY    66  62  87 E6        29.91S
HURON          MOCLDY    67  67 100 SE3       29.87S FOG
CHAMBERLAIN    CLOUDY    65  64  97 SE9       29.86F
MITCHELL       MOCLDY    67  66  97 S5        29.89  FOG
YANKTON        PTCLDY    64  63  94 CALM      29.89R
$$

ABBREVIATIONS USED IN REMARKS
   TC - TEMPERATURE IN CELSIUS
  WCI - WIND CHILL INDEX
   HX - HEAT INDEX
  VSB - VISIBILITY



USA.gov is the U.S. government's official web portal to all federal, state and local government web resources and services.